Voltar ao catálogo

STARLINK-37132

AtivoComunicaçõesVLEO
NORAD 68233·PAYLOAD·🇺🇸 United States

Lançado Mar 17, 2026 de Vandenberg Space Force Base

Loading…

Próximas Passagens (próximas 24 horas)

TLE

AtualizadoSource: CelesTrak SupGP

Época: Sep 14, 2026, 21:32 UTC

1 68233C 26054B   26257.89770833 -.00177110  00000+0 -52317-2 0  2571
2 68233  53.1565 127.7479 0001362  78.8280 327.1158 15.34486398    10

Acompanhe STARLINK-37132 em tempo real com AllMySat

Download on the App Store